#timestamp,LO_Frequency,Hit,StdDev 
1536361215.6,286047001.1,N
1536361235.4,286047001.2,N
1536361255.3,286046998.7,N
1536361275.1,286046998.4,N
1536361276.0,286046998.4,N
1536361295.8,286046998.9,N
1536361315.7,286046999.5,N
1536361335.5,286046999.1,N
1536361355.3,286046996.9,N
1536361375.2,286046996.7,N
1536361395.0,286046999.0,N
1536361395.9,286046999.0,N
1536361415.8,286046998.7,N
1536361435.6,286047000.8,N
1536361455.4,286046998.1,N
1536361475.3,286047000.6,N
1536361495.1,286047000.0,N
1536361515.8,286047001.0,N
1536361535.7,286047000.9,N
1536361555.5,286047000.9,N
1536361575.4,286046998.3,N
1536361595.2,286047001.1,N
1536361615.0,286046998.3,N
1536361615.9,286046998.3,N
1536361635.8,286046999.0,N
1536361655.6,286046999.4,N
1536361675.5,286046998.9,N
1536361695.3,286046998.9,N
1536361715.1,286047000.6,N
1536361735.9,286047002.3,N
1536361755.7,286046999.8,N
1536361775.5,286047000.2,N
1536361795.4,286047000.6,N
1536361815.2,286046998.3,N
1536361835.1,286046998.2,N
1536361836.0,286046998.2,N
1536361855.8,286047000.7,N
1536361875.6,286047001.1,N
1536361895.5,286047000.1,N
1536361915.3,286046999.8,N
1536361935.2,286047001.0,N
1536361955.9,286047000.6,N
1536361975.7,286047000.5,N
1536361995.6,286047000.8,N
1536362015.4,286046998.3,N
1536362035.2,286046998.5,N
1536362055.1,286046999.1,N
1536362056.0,286046999.1,N
1536362075.8,286046998.3,N
1536362095.7,286046998.1,N
1536362115.5,286047000.5,N
1536362135.3,286047001.0,N
1536362155.2,286046998.3,N
1536362205.0,286046996.8,E
1536362215.9,286046998.3,N
1536362235.7,286047002.2,P
1536362255.5,286047001.6,N
1536362275.4,286047001.7,N
1536362295.2,286047003.5,N
1536362315.1,286047003.3,N
1536362316.0,286047003.3,N
1536362335.8,286047003.8,N
1536362355.6,286047001.3,N
1536362375.5,286047003.9,N
1536362395.3,286047003.8,N
1536362415.1,286047003.9,N
1536362435.9,286047001.4,N
1536362455.7,286047004.0,N
1536362475.6,286047004.3,N
1536362495.4,286047001.4,N
1536362515.2,286047004.4,N
1536362535.1,286047002.1,N
1536362536.0,286047002.1,N
1536362555.8,286046999.7,N
1536362575.7,286047002.1,N
1536362595.5,286047003.8,N
1536362615.3,286047003.9,N
1536362635.2,286047003.4,N
1536362655.0,286047003.9,N
1536362655.9,286047003.9,N
1536362675.7,286047003.2,N
1536362695.6,286047004.1,N
1536362715.4,286047001.4,N
1536362735.3,286047001.6,N
1536362755.1,286047002.6,N
1536362756.0,286047002.6,N
1536362775.8,286047000.1,N
1536362795.7,286047000.0,N
1536362815.5,286047000.0,N
1536362835.4,286047002.8,N
1536362855.2,286046999.9,N
1536362875.0,286046999.7,N
1536362875.9,286046999.7,N
1536362895.8,286046999.8,N
1536362915.6,286047002.0,N
1536362935.4,286047002.4,N
1536362955.3,286047000.9,N
1536362975.1,286047000.6,N
1536362995.9,286046999.7,N
1536363015.7,286047000.0,N
1536363035.5,286047002.7,N
1536363055.4,286046999.7,N
1536363075.2,286047000.4,N
1536363095.0,286047000.4,N
1536363096.0,286047000.4,N
1536363115.8,286047000.3,N
1536363135.6,286047001.0,N
1536363155.5,286046998.6,N
1536363175.3,286047000.9,N
1536363195.1,286047001.2,N
1536363215.9,286047000.5,N
1536363235.7,286047000.8,N
1536363255.6,286046999.9,N
1536363275.4,286047002.2,N
1536363295.2,286047001.3,N
1536363315.1,286047004.3,Y
1536363316.0,286047004.3,P
1536363335.8,286047000.0,N
1536363355.6,286047000.4,N
1536363375.5,286047002.7,N
1536363395.3,286047002.4,N
1536363415.2,286047000.3,N
1536363435.9,286047000.2,N
1536363455.7,286047000.0,N
1536363475.6,286047001.1,N
1536363495.4,286047001.0,N
1536363515.2,286047000.4,N
1536363535.1,286047002.6,N
1536363536.0,286047002.6,N
1536363555.8,286047002.2,N
1536363575.7,286047001.6,N
1536363595.5,286047002.4,N
1536363615.3,286047001.4,N
1536363635.2,286047002.5,N
1536363655.0,286047002.2,N
1536363655.9,286047002.2,N
1536363675.8,286046999.8,N
1536363695.6,286047002.7,N
1536363715.4,286047002.8,N
1536363735.3,286047001.9,N
1536363755.1,286047004.4,Y
1536363775.8,286047002.2,P
1536363795.7,286047002.5,P
1536363815.5,286047002.3,P
1536363835.4,286047001.1,Y
1536363855.2,286046996.7,P
1536363875.0,286046996.7,N
1536363875.9,286046996.7,N
1536363895.8,286046999.4,N
1536363915.6,286046999.5,N
1536363935.5,286046997.8,N
1536363955.3,286046999.5,N
1536363975.1,286046997.3,N
1536363995.9,286046999.6,N
1536364015.7,286046996.5,N
1536364035.5,286046998.5,N
1536364055.4,286046999.0,N
1536364075.2,286046999.0,N
1536364095.1,286046998.7,N
1536364096.0,286046998.7,N
1536364115.8,286047001.0,N
1536364135.6,286046998.5,N
1536364155.5,286046998.8,N
1536364175.3,286047000.7,N
1536364195.1,286047000.2,N
1536364215.9,286047000.3,N
1536364235.7,286047001.0,N
1536364255.6,286047000.7,N
1536364275.4,286046998.4,N
1536364295.2,286046999.5,N
1536364315.1,286046997.0,N
1536364316.0,286046997.0,N
1536364335.8,286046998.9,N
1536364355.7,286046998.2,N
1536364375.5,286046996.6,N
1536364395.3,286046998.9,N
1536364415.2,286046999.4,N
1536364435.0,286047001.2,N
1536364435.9,286047001.2,N
1536364455.8,286046998.3,N
1536364475.6,286046998.2,N
1536364495.4,286046998.9,N
1536364515.3,286047000.8,N
1536364535.1,286047000.6,N
1536364555.8,286047000.6,N
1536364575.7,286047000.2,N
1536364595.5,286047000.5,N
1536364615.4,286047002.7,N
1536364635.2,286047002.1,N
1536364655.0,286047001.9,N
1536364655.9,286047001.9,N
1536364675.8,286047002.2,N
1536364695.6,286046999.8,N
1536364715.4,286047002.8,N
1536364735.3,286047000.5,N
1536364755.1,286046999.8,N
1536364775.9,286047002.3,N
1536364795.7,286047000.2,N
